Dewpoint
66 66 66 67 67 67 68 68 69 69 71 71 72 72 72 72 71 71 71 70 70 69
68 66 66 68 68 67 68 68 69 69 70 71 71 73 72 72 71 71 71 71 71 70
68 68 68 68 68 68 68 68 69 69 69 70 71 72 73 72 71 71 72 71 72 72
68 68 68 67 68 68 68 68 68 69 70 70 71 72 73 71 71 71 71 71 72 72
68 68 68 68 68 68 68 69 69 68 68 69 70 70 71 72 72 71 71 71 71 71
67 68 68 68 68 68 68 69 69 70 70 71 71 71 72 72 71 71 71 72 71 71
67 68 68 69 69 70 69 69 69 69 70 70 70 71 71 71 71 71 71 72 72 71
68 68 68 68 69 69 70 70 71 70 70 70 70 69 71 70 70 71 71 71 72 72
69 69 68 69 69 69 68 69 70 70 70 70 69 67 66 70 71 71 71 71 72 72
69 69 69 69 69 69 69 69 69 68 69 69 70 64 65 67 70 69 70 70 70 68
69 69 69 69 69 69 69 69 69 69 70 69 68 63 63 65 68 67 66 65 62 61
69 69 69 69 69 69 69 70 69 70 70 69 68 61 61 64 65 64 63 62 61 60
69 69 68 69 69 70 70 70 71 71 71 68 69 60 61 61 66 63 62 62 61 59
70 69 70 69 69 70 70 70 70 71 70 69 68 65 58 59 64 62 61 60 59 59
Lifted_Index
-1 -1 -1 -0 -0 -1 -1 -1 -2 -2 -2 -3 -3 -3 -3 -4 -4 -4 -3 -3 -3 -3
-1 -1 -1 -0 -0 -1 -1 -1 -2 -2 -2 -2 -2 -3 -3 -4 -4 -4 -3 -3 -3 -3
-1 -1 -1 -1 -0 -0 -1 -1 -2 -2 -2 -2 -2 -3 -3 -4 -4 -3 -3 -3 -3 -3
-1 -1 -1 -1 -1 -1 -1 -1 -2 -2 -2 -2 -2 -3 -3 -4 -4 -4 -3 -3 -4 -4
-2 -1 -1 -1 -1 -1 -1 -1 -2 -2 -2 -2 -2 -3 -3 -4 -4 -4 -4 -4 -4 -4
-2 -2 -2 -2 -2 -2 -1 -1 -2 -2 -2 -2 -3 -3 -3 -4 -4 -4 -4 -4 -4 -4
-2 -2 -2 -2 -2 -2 -2 -2 -2 -2 -2 -3 -3 -3 -3 -3 -3 -3 -3 -3 -4 -4
-3 -3 -3 -2 -2 -2 -2 -3 -3 -3 -3 -3 -3 -3 -3 -3 -3 -3 -3 -4 -4 -4
-4 -4 -3 -3 -3 -2 -3 -3 -3 -3 -3 -3 -3 -3 -3 -3 -3 -3 -4 -4 -4 -4
-4 -4 -4 -4 -3 -3 -3 -3 -3 -3 -3 -3 -3 -3 -3 -3 -3 -3 -3 -3 -2 -2
-4 -4 -4 -4 -4 -4 -3 -3 -3 -3 -3 -3 -3 -3 -4 -4 -3 -3 -2 -1 -1 -1
-5 -5 -5 -4 -4 -4 -4 -4 -4 -4 -4 -4 -4 -4 -4 -4 -4 -3 -2 -1 0 0
-5 -5 -5 -5 -5 -5 -5 -5 -5 -5 -5 -5 -5 -6 -6 -5 -4 -3 -2 -1 1 1
-6 -6 -5 -5 -5 -5 -5 -5 -5 -6 -6 -6 -6 -6 -6 -6 -5 -4 -3 -1 1 1